Location: Newark
(20.0000°S, 47.0000°E)
Time: 02:48:54
(UTC+00:00)

OTV 5 (USA 277) - Visible Passes

Search period start: 21 October 2019 00:00
Search period end: 31 October 2019 00:00
Orbit: 310 x 324 km, 54.5° (Epoch: 17 October)

Date Brightness Start Highest point End Pass type
(mag) Time Alt. Az. Time Alt. Az. Time Alt. Az.
21 Oct ? 15:15:10 10° WSW 15:17:26 24° WNW 15:19:41 10° N visible
29 Oct ? 01:17:24 10° N 01:19:32 21° ENE 01:21:39 10° ESE visible
30 Oct ? 01:31:33 12° NW 01:33:57 74° SW 01:36:40 10° SSE visible
